Weather History for Spencer, IA

Change the Weather History Date:

Tuesday, January 8, 2013

  Actual Average Record
Temperature  
Mean Temperature 22 °F -  
Max Temperature 33 °F 19 °F 59 °F (2003)
Min Temperature 12 °F 0 °F -21 °F (1970)
Degree Days  
Heating Degree Days 42    
Moisture  
Dew Point 14 °F    
Average Humidity 77    
Maximum Humidity 88    
Minimum Humidity 71    
Precipitation  
Precipitation 0.00 in - - ()
Sea Level Pressure  
Sea Level Pressure 29.92 in    
Wind  
Wind Speed 5 mph (SSE)    
Max Wind Speed 18 mph    
Max Gust Speed 22 mph    
Visibility 5 miles    
Events Snow    
Averages and records for this station are not official NWS values.
T = Trace of Precipitation, MM = Missing Value Source: NWS Daily Summary

Daily Weather History Graph

Daily Weather History Graph

Search for Another Location

Airport:

Trip Planner

Search our weather history database for the weather conditions in past years. The results will help you decide how hot, cold, wet, or windy it might be!

Date:

Astronomy

Jan. 08, 2013 Rise Set
Actual Time 7:52 AM CST 5:03 PM CST
Civil Twilight 7:20 AM CST 5:35 PM CST
Nautical Twilight 6:44 AM CST 6:11 PM CST
Astronomical Twilight 6:10 AM CST 6:45 PM CST
Moon 4:25 AM CST (1/8) 2:06 PM CST (1/8)
Length of Visible Light 10h 15m
Length of Day
9h 11m
Waning Crescent, 13% of the Moon is Illuminated
Jan 8
Waning Crescent
Jan 11
New
Jan 18
First Quarter
Jan 26
Full
Feb 3
Last Quarter

Hourly Weather History & Observations

Time (CST) Temp. Windchill Dew Point Humidity Pressure Visibility Wind Dir Wind Speed Gust Speed Precip Events Conditions
12:53 AM 14.0 °F - 8.1 °F 77% 30.01 in 0.2 mi Calm Calm - N/A   Haze
1:53 AM 14.0 °F 8.2 °F 8.1 °F 77% 30.01 in 0.2 mi SE 3.5 mph - N/A   Haze
2:53 AM 14.0 °F 8.2 °F 8.1 °F 77% 30.00 in 0.2 mi NE 3.5 mph - N/A   Haze
3:53 AM 12.9 °F 5.2 °F 7.0 °F 77% 29.98 in 0.2 mi East 4.6 mph - 0.00 in   Haze
4:13 AM 12.2 °F 6.1 °F 6.8 °F 79% 29.92 in 1.0 mi SE 3.5 mph - 0.00 in Snow Light Snow
4:18 AM 12.2 °F - 6.8 °F 79% 29.91 in 3.0 mi Calm Calm - 0.00 in Snow Light Snow
4:30 AM 14.0 °F 8.2 °F 6.8 °F 73% 29.92 in 1.2 mi SE 3.5 mph - 0.00 in   Haze
4:34 AM 14.0 °F 8.2 °F 6.8 °F 73% 29.91 in 0.2 mi SE 3.5 mph - 0.00 in   Haze
4:53 AM 14.0 °F 8.2 °F 7.0 °F 74% 29.97 in 0.2 mi NE 3.5 mph - 0.00 in   Haze
5:01 AM 14.0 °F 6.5 °F 6.8 °F 73% 29.90 in 0.5 mi NE 4.6 mph - N/A   Haze
5:16 AM 14.0 °F - 8.6 °F 79% 29.90 in 2.0 mi Calm Calm - N/A   Haze
5:24 AM 14.0 °F 6.5 °F 6.8 °F 73% 29.89 in 4.0 mi ENE 4.6 mph - N/A   Haze
5:42 AM 12.2 °F - 6.8 °F 79% 29.89 in 1.8 mi Calm Calm - N/A   Haze
5:53 AM 12.9 °F - 5.0 °F 71% 29.96 in 0.5 mi Calm Calm - N/A   Haze
6:06 AM 12.2 °F 6.1 °F 6.8 °F 79% 29.89 in 1.2 mi East 3.5 mph - N/A   Haze
6:10 AM 12.2 °F 4.3 °F 6.8 °F 79% 29.88 in 3.0 mi East 4.6 mph - N/A   Haze
6:24 AM 12.2 °F 1.7 °F 6.8 °F 79% 29.87 in 4.0 mi East 6.9 mph - N/A   Haze
6:53 AM 12.9 °F 6.9 °F 5.0 °F 71% 29.95 in 7.0 mi ENE 3.5 mph - N/A   Clear
7:53 AM 14.0 °F 8.2 °F 7.0 °F 74% 29.94 in 6.0 mi East 3.5 mph - N/A   Haze
8:53 AM 16.0 °F - 9.0 °F 74% 29.94 in 4.0 mi Calm Calm - N/A   Haze
9:04 AM 17.6 °F - 10.4 °F 73% 29.86 in 2.5 mi Calm Calm - N/A   Haze
9:19 AM 23.0 °F 14.7 °F 17.6 °F 80% 29.86 in 2.0 mi SSE 6.9 mph - N/A   Haze
9:31 AM 24.8 °F 16.1 °F 17.6 °F 74% 29.86 in 4.0 mi SSE 8.1 mph - N/A   Haze
9:53 AM 25.0 °F 15.5 °F 19.0 °F 78% 29.91 in 4.0 mi SSE 9.2 mph - N/A   Haze
10:53 AM 28.9 °F 18.2 °F 21.9 °F 75% 29.89 in 7.0 mi South 13.8 mph - N/A   Clear
11:53 AM 30.9 °F 21.2 °F 24.1 °F 76% 29.86 in 8.0 mi South 12.7 mph - N/A   Clear
12:53 PM 33.1 °F 23.0 °F 26.1 °F 75% 29.81 in 10.0 mi SSW 15.0 mph - N/A   Clear
1:53 PM 32.0 °F 22.5 °F 26.1 °F 79% 29.81 in 10.0 mi SSW 12.7 mph - N/A   Clear
2:53 PM 33.1 °F 22.2 °F 26.1 °F 75% 29.82 in 10.0 mi SSW 17.3 mph 21.9 mph N/A   Clear
3:53 PM 30.0 °F 19.1 °F 23.0 °F 75% 29.86 in 7.0 mi SW 15.0 mph - N/A   Clear
4:53 PM 28.9 °F 17.3 °F 23.0 °F 78% 29.88 in 7.0 mi SW 16.1 mph - N/A   Partly Cloudy
5:53 PM 28.9 °F 16.5 °F 23.0 °F 78% 29.92 in 8.0 mi WSW 18.4 mph - N/A   Clear
6:53 PM 28.0 °F 16.1 °F 21.9 °F 78% 29.94 in 9.0 mi WSW 16.1 mph - N/A   Clear
7:53 PM 25.0 °F 13.6 °F 21.0 °F 85% 29.97 in 8.0 mi SW 12.7 mph - N/A   Clear
8:53 PM 26.1 °F 13.6 °F 21.0 °F 81% 30.00 in 10.0 mi WSW 16.1 mph - N/A   Clear
9:53 PM 26.1 °F 15.0 °F 21.9 °F 84% 30.03 in 10.0 mi West 12.7 mph - N/A   Clear
10:53 PM 24.1 °F 13.7 °F 19.9 °F 84% 30.06 in 10.0 mi West 10.4 mph - N/A   Clear
11:53 PM 24.1 °F 19.7 °F 21.0 °F 88% 30.07 in 10.0 mi WSW 3.5 mph - N/A   Clear